Location: Oshawa
(43.9000°N, 78.8670°W)
Time: 00:45:15
(UTC-04:00)

Cosmos 1500 - Visible Passes

Search period start: 27 July 2017 00:00
Search period end: 06 August 2017 00:00
Orbit: 503 x 523 km, 82.5° (Epoch: 26 July)

Date Brightness Start Highest point End Pass type
(mag) Time Alt. Az. Time Alt. Az. Time Alt. Az.
27 Jul 4.5 01:32:35 38° NNE 01:32:35 38° NNE 01:35:06 10° NNE visible
28 Jul 4.7 01:16:59 33° NNE 01:16:59 33° NNE 01:19:20 10° NNE visible
28 Jul 5.8 02:51:56 11° WNW 02:51:56 11° WNW 02:52:51 10° NW visible
29 Jul 4.9 01:01:22 28° NE 01:01:22 28° NE 01:03:30 10° NNE visible
29 Jul 5.7 02:36:19 13° WNW 02:36:19 13° WNW 02:37:47 10° NW visible
30 Jul 5.1 00:45:44 24° NE 00:45:44 24° NE 00:47:39 10° NNE visible
30 Jul 5.6 02:20:42 16° NW 02:20:42 16° NW 02:22:28 10° NNW visible
31 Jul 5.3 00:30:06 20° NE 00:30:06 20° NE 00:31:45 10° NNE visible
31 Jul 5.5 02:05:04 18° NW 02:05:04 18° NW 02:07:01 10° NNW visible
01 Aug 5.5 00:14:27 17° NE 00:14:27 17° NE 00:15:49 10° NE visible
01 Aug 5.3 01:49:25 21° NW 01:49:25 21° NW 01:51:30 10° NNW visible
01 Aug 5.6 23:58:48 14° NE 23:58:48 14° NE 23:59:49 10° NE visible
02 Aug 5.2 01:33:45 24° NW 01:33:45 24° NW 01:35:55 10° NNW visible
02 Aug 5.8 23:43:08 12° NE 23:43:08 12° NE 23:43:43 10° NE visible
03 Aug 5.1 01:18:05 27° NNW 01:18:05 27° NNW 01:20:18 10° N visible
04 Aug 5.0 01:02:25 29° NNW 01:02:25 29° NNW 01:04:39 10° N visible
05 Aug 5.0 00:46:43 31° NNW 00:46:43 31° NNW 00:48:58 10° N visible
